Temperature
7 5 5 6 6 7 6 6 6 6 7 7 7 7 8 8 8 8 8 8 8 9 10 10 10 11 11 11 11 11 12 12 12 12 12 12 12 13 13 13 13 13 13 14
6 5 6 7 7 7 7 6 6 6 7 7 7 7 7 8 7 8 7 8 8 8 9 10 10 11 11 11 11 11 12 12 12 12 12 12 12 12 13 13 13 13 13 13
6 6 8 8 7 7 7 6 6 6 7 7 7 7 7 7 8 8 7 7 8 8 8 9 9 10 10 11 11 11 11 11 11 11 12 12 11 12 12 12 12 12 13 13
6 7 7 7 7 7 6 7 7 7 6 6 6 6 7 7 7 7 7 7 7 8 8 9 9 9 10 10 10 10 11 11 11 11 11 11 11 12 12 12 12 12 12 12
6 7 7 7 7 7 7 7 7 7 6 6 6 6 6 6 7 7 7 7 7 8 8 8 8 9 9 10 10 10 10 10 10 11 11 11 11 11 11 12 12 12 12 12
6 7 7 7 7 7 7 7 6 6 6 6 6 6 6 6 6 6 6 6 7 7 7 8 8 8 9 9 9 9 10 10 10 10 10 10 10 11 11 11 11 11 11 11
6 6 7 7 7 7 6 5 5 5 5 6 7 6 6 6 6 6 6 6 6 6 7 7 7 8 8 8 9 9 9 9 10 10 10 10 10 10 11 11 11 11 11 11
5 5 6 7 7 6 6 6 5 6 5 6 6 6 6 6 6 6 6 6 6 6 6 6 7 7 7 8 8 9 9 9 9 9 9 9 10 10 10 10 10 11 11 11
5 5 7 7 7 7 7 6 6 5 5 5 6 6 6 6 6 6 6 6 5 5 6 6 6 6 7 7 7 8 8 8 9 9 9 9 9 9 10 10 10 10 10 10
5 5 6 7 7 7 7 6 5 5 6 6 6 6 5 5 5 5 5 5 5 5 5 5 6 6 6 6 7 7 8 8 8 8 9 9 9 9 9 9 10 10 10 10
5 5 5 6 6 6 6 6 5 5 5 5 5 6 6 5 5 5 5 5 5 5 5 5 5 6 6 6 6 7 7 7 8 8 8 8 8 9 9 9 9 9 9 9
5 4 4 5 6 7 6 6 5 5 5 4 5 5 6 5 5 5 5 5 5 5 5 5 5 5 5 5 6 6 7 7 7 7 8 8 8 8 8 8 8 8 8 9
6 5 4 5 6 6 6 6 6 5 4 4 5 5 5 5 5 5 4 4 4 4 4 4 5 5 5 5 5 5 6 6 6 7 7 7 7 7 7 8 8 8 8 8
6 5 4 5 5 5 6 6 6 5 4 4 5 5 5 4 4 4 4 4 4 4 4 4 4 4 4 4 5 5 5 5 6 6 6 7 7 7 7 7 7 7 7 7
5 5 5 5 6 6 6 6 6 5 5 5 5 5 5 4 4 4 4 4 4 3 3 3 3 3 4 4 4 4 5 5 5 5 6 6 6 6 6 6 7 7 7 7
4 5 5 5 6 6 5 5 5 6 5 5 5 5 5 5 4 4 4 3 3 3 3 3 3 3 3 3 3 4 4 4 4 5 5 5 5 6 6 6 6 6 6 6
4 4 4 4 5 6 5 5 5 5 5 5 5 5 4 4 3 4 3 3 3 3 3 3 3 3 3 3 3 3 4 4 4 4 4 4 5 5 5 5 5 5 5 5
4 4 3 4 5 6 6 6 6 5 5 5 5 4 4 4 4 4 4 4 3 3 3 3 3 3 3 3 3 3 3 4 4 4 4 4 4 4 4 4 5 5 4 4
3 4 3 3 4 5 6 6 5 5 5 5 4 4 4 4 3 3 4 4 4 3 3 3 3 3 3 3 3 3 3 3 3 3 3 3 3 3 4 4 4 4 4 4
3 3 3 3 5 5 7 6 6 6 5 5 4 4 3 3 2 3 4 3 3 3 3 3 2 3 3 2 2 2 2 2 2 2 2 2 2 3 3 3 3 3 3 3
3 3 3 3 4 4 5 5 6 5 6 5 5 4 4 3 4 4 4 3 3 3 3 2 2 2 2 2 2 2 2 2 2 2 2 2 2 2 2 2 2 2 2 2
3 2 3 3 4 4 5 5 5 5 5 5 5 5 4 4 4 4 4 3 3 3 2 2 2 2 2 1 1 1 1 1 1 1 1 1 1 1 1 1 2 1 1 1
2 3 2 3 4 5 5 6 7 6 6 6 6 5 5 4 4 4 3 3 3 2 2 2 1 1 1 1 1 1 0 0 0 0 0 0 1 1 1 1 1 1 1 0
2 2 2 3 3 4 5 6 6 6 6 6 6 5 5 4 4 3 3 2 2 2 1 1 1 1 1 1 0 0 -0 -0 -0 -0 -0 -0 -0 -0 -0 -0 -0 -0 -0 -0
2 2 2 2 3 4 5 6 6 6 6 6 5 5 4 4 3 3 3 2 2 1 1 1 1 0 0 0 -0 -0 -0 -0 -0 -1 -1 -1 -1 -1 -1 -1 -1 -1 -1 -1
1 2 2 3 4 3 5 7 6 6 5 5 5 4 4 3 3 3 2 2 1 1 1 0 0 -0 -0 -1 -1 -1 -1 -1 -1 -1 -1 -1 -1 -1 -1 -1 -1 -1 -1 -1
Wind_Speed
3 2 4 7 8 7 6 7 10 10 7 6 8 12 12 8 4 4 5 5 4 6 5 3 3 4 3 3 5 7 7 6 6 6 6 6 6 6 6 5 8 11 12 12
1 5 8 6 6 6 7 7 8 8 4 5 6 9 9 7 4 3 4 4 4 4 3 3 3 1 2 3 5 6 6 5 6 7 6 5 5 5 5 5 6 10 11 11
5 5 4 3 3 4 6 6 5 6 6 3 4 6 5 6 5 6 7 6 4 3 2 3 2 0 1 1 3 4 5 5 5 5 5 4 3 3 3 5 6 8 9 10
4 5 2 2 3 3 4 5 6 6 4 4 2 4 6 7 7 9 9 8 6 5 3 1 0 2 1 0 2 3 5 5 5 4 5 6 5 5 4 4 5 7 8 8
3 2 2 3 4 2 5 5 5 5 3 3 2 1 5 6 8 10 10 9 8 6 3 3 2 3 3 2 2 2 3 3 4 4 5 5 4 3 3 3 4 6 7 7
3 2 2 3 3 3 3 3 3 1 1 2 3 1 4 5 7 8 9 9 9 8 8 7 5 4 4 4 3 2 2 2 3 4 4 5 5 4 4 3 3 5 5 5
3 3 2 1 2 3 2 3 3 5 3 2 3 1 3 6 5 6 7 9 10 11 10 9 8 7 6 6 5 4 3 3 2 3 3 3 4 5 4 3 4 5 4 3
1 4 3 1 1 1 1 2 2 1 2 3 4 2 3 5 5 6 7 7 9 11 10 11 10 8 7 7 6 6 5 4 4 3 2 2 2 3 2 2 3 4 3 3
2 3 3 2 1 1 1 0 2 2 1 1 3 3 3 6 7 7 8 9 9 9 10 10 10 10 9 8 7 6 6 6 5 4 3 3 2 2 2 2 2 3 2 2
3 1 4 3 2 2 1 1 2 1 1 1 3 2 3 6 6 7 8 8 8 9 9 10 10 10 9 8 8 8 9 8 6 6 5 4 3 3 2 2 2 1 2 2
2 1 4 3 1 1 1 1 1 1 2 2 1 3 1 2 2 3 5 6 6 8 8 9 10 10 10 10 10 10 9 9 8 7 6 6 5 4 4 3 1 1 1 1
1 2 2 4 4 2 1 1 1 2 1 1 2 2 2 1 1 3 5 6 7 7 8 9 9 10 11 11 11 10 10 9 8 7 6 6 5 5 4 3 1 1 0 1
1 2 2 5 4 3 1 2 1 2 2 1 1 3 1 2 3 4 4 5 6 7 8 9 9 10 10 10 10 10 9 9 8 7 7 6 6 6 4 3 2 1 1 1
2 2 3 4 5 2 3 3 1 2 2 2 3 3 2 1 2 3 3 4 4 6 7 8 9 9 9 9 9 9 9 8 8 7 7 6 5 5 4 4 3 3 2 1
3 1 2 4 4 2 2 3 1 2 4 4 4 4 4 3 2 1 1 3 4 5 7 7 7 7 8 8 8 8 8 8 7 7 7 6 5 5 5 5 5 4 3 3
2 1 1 3 3 2 3 4 2 2 2 3 3 3 3 1 2 1 1 2 3 3 4 5 6 7 7 7 7 7 8 7 7 7 7 6 6 6 6 5 5 5 5 4
1 1 1 3 4 3 5 5 4 3 4 5 5 5 3 2 2 3 2 2 1 1 2 4 4 4 5 5 6 6 7 7 7 7 6 6 6 7 6 6 6 5 5 4
2 2 1 1 3 3 5 2 4 4 3 4 4 4 5 4 3 2 3 3 2 0 1 2 3 4 4 5 5 6 6 6 7 7 7 7 6 6 6 6 5 5 5 4
3 3 1 1 1 6 5 2 4 3 4 4 5 5 3 2 2 1 1 2 2 1 1 1 2 2 3 4 5 5 6 7 7 7 8 7 7 6 6 6 5 5 4 4
3 4 3 2 1 5 5 2 2 3 4 4 6 7 5 4 2 4 3 2 1 0 0 1 1 2 3 4 4 5 6 6 7 7 7 7 6 6 6 5 5 5 4 4
1 1 3 3 4 7 5 2 4 3 6 4 7 8 7 6 5 3 3 2 1 1 0 1 1 2 2 3 4 5 5 6 6 6 6 6 6 5 5 5 4 4 4 4
7 5 5 5 4 7 4 5 6 7 2 4 5 6 6 4 3 3 3 2 1 1 1 1 1 2 3 3 3 4 5 6 6 6 6 6 6 5 5 5 4 4 3 4
6 7 5 8 8 4 5 6 5 4 4 4 5 5 5 4 3 3 3 2 2 1 0 1 1 2 3 3 2 3 5 6 6 6 6 6 6 5 5 4 4 4 3 3
5 4 3 5 8 5 6 4 3 4 5 5 6 6 6 5 4 4 3 2 1 1 1 1 1 2 3 3 3 3 4 5 5 6 6 5 5 5 5 4 3 3 3 3
7 4 4 6 7 4 5 6 6 4 4 5 4 5 6 6 4 4 3 3 2 1 1 0 1 2 4 4 4 4 4 5 5 6 6 5 5 4 4 4 4 4 4 4
6 8 7 8 7 6 6 6 6 6 6 6 6 4 4 5 6 5 4 3 2 2 1 1 2 3 3 3 4 4 4 4 5 5 5 4 4 4 4 5 5 6 5 7
Wind_Direction
180 166 228 227 215 229 248 266 280 281 280 290 276 282 294 310 314 305 305 303 286 271 265 269 255 227 199 193 187 176 171 184 181 176 176 182 187 189 185 192 199 191 180 178
122 246 245 239 236 239 251 268 280 289 299 295 283 292 299 316 310 313 320 321 305 301 320 306 282 208 164 196 187 170 172 182 189 181 173 176 178 188 182 185 197 193 181 179
208 248 245 217 236 252 258 245 254 276 313 303 314 320 328 337 343 354 351 345 335 334 329 309 297 114 130 188 177 176 181 184 183 171 159 167 169 170 175 182 192 194 181 178
239 256 246 261 258 237 269 235 242 272 315 308 344 313 324 342 359 7 2 1 355 353 348 343 61 77 87 125 139 151 163 166 168 166 164 173 186 180 188 186 190 191 182 180
250 245 242 260 255 225 243 262 268 270 267 301 306 230 313 349 0 356 0 2 7 6 14 35 52 68 69 78 120 133 141 148 157 158 166 177 184 167 158 160 181 190 182 182
252 265 235 243 275 248 255 308 320 345 81 331 301 219 322 348 339 346 3 11 14 18 24 29 31 47 50 53 73 89 115 123 143 153 160 171 168 160 155 166 196 191 185 183
329 312 295 272 324 342 46 55 26 9 10 293 326 33 316 327 346 2 10 12 15 21 25 25 31 37 38 40 44 55 84 90 107 129 143 156 166 160 164 174 184 180 179 187
10 307 287 277 217 277 344 113 133 182 263 306 351 351 313 340 7 18 24 26 23 23 24 27 30 34 37 40 46 56 71 77 81 90 109 131 150 139 158 175 172 167 177 188
169 269 295 274 262 156 56 99 182 145 312 336 324 320 325 15 26 22 26 31 26 22 24 26 28 32 36 39 39 49 62 68 66 68 77 78 83 108 137 150 158 166 169 185
156 266 300 304 19 3 151 166 89 109 100 335 323 320 325 344 7 13 20 26 22 22 27 27 27 28 32 35 34 40 50 54 54 54 56 60 62 67 79 100 119 157 175 185
146 138 319 355 20 305 4 20 74 133 155 153 293 295 307 297 350 15 17 24 28 29 28 28 30 28 32 34 35 37 38 40 43 44 50 51 45 49 52 62 85 135 181 199
166 121 302 285 281 255 217 219 165 141 276 147 158 273 4 33 6 38 24 19 27 33 30 30 32 32 32 31 29 32 31 31 29 32 40 40 35 38 41 48 51 52 226 216
128 105 18 347 341 346 318 288 213 144 119 134 160 259 32 57 42 36 34 23 23 29 30 30 30 30 29 27 25 26 25 24 22 26 32 33 27 25 19 25 23 22 341 282
105 111 168 201 238 255 286 296 285 130 144 192 217 224 277 9 40 26 41 40 35 34 31 27 25 22 22 21 20 20 19 18 21 27 30 30 19 12 8 12 14 8 358 333
92 136 233 257 262 238 256 271 250 180 192 192 209 206 229 215 192 174 83 63 50 38 31 27 21 16 16 16 15 14 14 12 17 27 30 25 18 15 17 18 15 11 6 354
64 145 320 314 300 279 277 268 233 217 204 200 198 250 227 167 112 104 102 87 67 42 25 17 17 13 10 9 6 6 6 5 11 22 20 13 13 16 18 15 13 14 9 4
51 100 38 291 311 344 291 247 206 208 202 178 206 220 156 149 172 180 166 133 115 52 17 7 6 2 357 355 360 1 356 358 8 12 11 9 8 11 10 9 11 8 4 4
142 103 128 296 3 272 254 262 184 191 236 206 193 180 174 183 191 179 160 158 161 140 359 348 347 348 346 354 360 357 359 4 6 5 3 1 5 5 359 360 3 358 352 353
156 146 128 115 288 284 285 230 174 183 265 208 183 178 164 132 91 284 227 182 191 205 272 305 318 334 348 356 356 2 4 3 6 3 357 351 352 355 353 351 347 340 339 342
89 106 126 151 221 246 254 204 153 107 280 218 175 172 169 143 185 244 225 197 195 172 34 343 347 7 2 349 356 8 2 1 356 348 342 339 341 343 339 336 335 333 334 331
127 122 165 193 235 263 248 170 117 166 249 193 175 173 172 190 209 200 173 175 174 158 345 26 27 3 335 339 358 359 354 347 334 333 334 337 335 333 329 332 334 331 331 333
184 181 196 177 213 257 201 143 185 219 197 159 169 174 178 189 166 154 161 163 148 113 27 25 9 334 330 342 354 345 334 327 332 334 335 335 333 331 332 331 328 325 325 326
204 197 196 200 219 250 197 205 214 171 170 178 174 178 169 166 173 174 176 174 168 159 315 339 330 324 330 334 340 329 320 328 334 334 330 327 328 326 323 321 319 320 318 309
261 202 206 258 263 250 235 231 205 181 181 178 172 170 165 171 178 177 177 180 189 214 241 309 331 318 315 319 321 314 320 328 330 325 321 321 323 324 323 321 315 310 309 305
234 199 219 257 272 281 257 224 203 182 164 155 158 168 169 166 177 183 188 198 204 218 254 273 275 286 298 311 318 324 328 331 327 321 318 320 320 316 316 317 311 304 291 290
208 193 196 232 228 209 239 222 191 179 186 177 165 165 169 172 181 186 197 201 198 217 251 285 283 287 293 301 306 315 322 325 321 320 318 316 318 318 321 322 324 327 319 321
Height
1485 1488 1486 1484 1482 1482 1481 1481 1478 1473 1469 1468 1463 1458 1451 1448 1445 1442 1440 1437 1434 1433 1432 1433 1434 1436 1438 1440 1442 1445 1449 1453 1456 1459 1462 1465 1468 1471 1475 1478 1482 1486 1489 1493
1486 1485 1480 1478 1478 1478 1479 1479 1477 1471 1466 1465 1461 1456 1450 1447 1444 1442 1439 1436 1433 1431 1430 1430 1431 1432 1435 1438 1440 1442 1445 1448 1452 1454 1457 1461 1464 1467 1470 1474 1478 1481 1484 1488
1483 1481 1476 1476 1476 1477 1476 1477 1475 1472 1466 1463 1462 1457 1451 1446 1443 1441 1437 1434 1432 1430 1429 1430 1430 1431 1433 1434 1436 1438 1441 1444 1447 1450 1454 1457 1460 1463 1466 1470 1472 1476 1479 1483
1480 1477 1475 1475 1475 1474 1475 1471 1470 1468 1470 1470 1467 1466 1454 1449 1445 1441 1438 1434 1431 1429 1429 1430 1430 1430 1431 1433 1435 1437 1438 1441 1444 1447 1449 1452 1454 1457 1460 1464 1468 1472 1475 1479
1479 1475 1474 1475 1473 1472 1472 1468 1468 1467 1469 1471 1467 1468 1461 1453 1448 1444 1441 1437 1433 1431 1430 1429 1429 1429 1431 1432 1434 1435 1437 1438 1441 1443 1446 1448 1451 1454 1457 1460 1464 1467 1470 1474
1477 1474 1473 1472 1470 1470 1469 1469 1467 1468 1471 1473 1467 1466 1463 1458 1453 1448 1444 1440 1436 1433 1431 1430 1429 1430 1430 1431 1431 1431 1433 1436 1438 1440 1443 1446 1448 1451 1454 1456 1459 1463 1466 1470
1479 1475 1472 1471 1471 1470 1470 1475 1480 1479 1479 1473 1465 1464 1463 1458 1454 1451 1447 1443 1440 1436 1433 1432 1431 1430 1430 1429 1429 1430 1432 1434 1436 1438 1441 1443 1446 1449 1451 1453 1455 1458 1462 1465
1484 1482 1474 1471 1471 1472 1471 1475 1482 1482 1481 1474 1467 1467 1465 1460 1457 1454 1450 1447 1443 1440 1437 1434 1433 1432 1431 1431 1431 1431 1433 1434 1435 1437 1439 1442 1444 1446 1449 1451 1452 1455 1458 1461
1483 1482 1473 1470 1470 1470 1471 1475 1475 1480 1480 1479 1473 1469 1464 1460 1459 1456 1453 1450 1447 1444 1441 1438 1436 1434 1433 1432 1432 1432 1433 1434 1435 1437 1438 1440 1442 1444 1447 1448 1450 1452 1455 1457
1480 1482 1475 1472 1470 1470 1472 1473 1477 1479 1478 1478 1474 1472 1470 1465 1462 1459 1456 1453 1450 1448 1445 1442 1440 1438 1436 1435 1435 1434 1433 1434 1435 1437 1438 1440 1441 1443 1444 1446 1447 1450 1452 1454
1478 1482 1480 1475 1474 1474 1473 1474 1475 1478 1478 1480 1479 1476 1468 1466 1464 1461 1459 1457 1454 1451 1448 1446 1443 1441 1439 1438 1437 1436 1436 1436 1437 1437 1439 1440 1441 1442 1443 1444 1446 1448 1450 1451
1478 1482 1484 1478 1473 1471 1472 1472 1474 1478 1480 1481 1482 1480 1468 1467 1465 1463 1462 1459 1457 1455 1452 1450 1447 1445 1442 1441 1440 1439 1439 1438 1438 1439 1439 1440 1441 1441 1442 1443 1445 1446 1447 1448
1477 1482 1487 1482 1479 1474 1472 1470 1471 1473 1478 1482 1481 1478 1468 1468 1467 1465 1464 1462 1460 1457 1454 1452 1450 1448 1446 1444 1443 1442 1441 1440 1440 1440 1440 1440 1441 1441 1441 1442 1442 1443 1444 1445
1476 1481 1485 1484 1480 1476 1473 1471 1470 1473 1479 1480 1476 1473 1470 1469 1468 1467 1466 1464 1462 1460 1457 1455 1453 1451 1450 1448 1447 1445 1444 1443 1442 1442 1441 1441 1441 1440 1440 1440 1440 1441 1441 1441
1476 1481 1479 1478 1474 1473 1472 1470 1470 1471 1472 1475 1472 1471 1468 1468 1468 1468 1467 1466 1465 1463 1461 1459 1457 1455 1453 1451 1449 1448 1446 1445 1444 1442 1441 1441 1440 1439 1439 1439 1438 1438 1439 1438
1478 1480 1478 1477 1472 1472 1472 1469 1469 1469 1469 1469 1469 1470 1466 1467 1468 1468 1468 1467 1466 1465 1463 1461 1459 1457 1455 1453 1451 1449 1447 1446 1445 1443 1442 1441 1440 1439 1438 1437 1437 1436 1436 1436
1479 1480 1482 1481 1475 1473 1473 1468 1467 1467 1465 1466 1468 1467 1466 1468 1467 1467 1467 1467 1466 1465 1464 1463 1461 1459 1457 1455 1453 1451 1449 1448 1446 1444 1443 1441 1440 1438 1437 1436 1436 1435 1434 1433
1480 1482 1485 1484 1479 1476 1469 1462 1463 1464 1463 1462 1462 1463 1464 1465 1466 1466 1466 1466 1466 1466 1465 1463 1462 1460 1458 1456 1454 1453 1451 1449 1447 1445 1443 1441 1439 1438 1437 1436 1434 1433 1433 1432
1478 1481 1484 1486 1483 1475 1465 1461 1462 1464 1463 1461 1462 1463 1464 1465 1466 1467 1466 1466 1466 1465 1464 1463 1462 1460 1458 1456 1455 1453 1451 1448 1447 1445 1443 1441 1439 1437 1436 1434 1433 1432 1431 1429
1478 1480 1485 1485 1481 1476 1462 1459 1459 1463 1463 1458 1459 1461 1463 1464 1468 1466 1465 1465 1465 1464 1463 1462 1461 1459 1458 1456 1454 1452 1450 1448 1446 1444 1442 1440 1438 1436 1435 1433 1432 1430 1429 1427
1480 1481 1484 1484 1482 1472 1460 1458 1460 1467 1460 1455 1456 1458 1460 1461 1462 1463 1463 1463 1463 1463 1462 1461 1460 1458 1457 1455 1453 1450 1448 1447 1445 1443 1441 1439 1437 1435 1434 1432 1430 1429 1427 1425
1478 1480 1480 1482 1480 1472 1456 1458 1460 1457 1453 1453 1455 1456 1457 1458 1460 1461 1461 1462 1462 1461 1460 1459 1458 1457 1455 1454 1452 1450 1448 1446 1444 1442 1439 1437 1435 1433 1432 1430 1428 1426 1424 1422
1473 1471 1470 1469 1464 1455 1453 1452 1452 1452 1452 1453 1454 1455 1456 1457 1458 1459 1460 1460 1460 1460 1459 1458 1457 1455 1454 1452 1450 1448 1446 1444 1442 1440 1437 1435 1433 1432 1430 1428 1426 1424 1422 1420
1467 1463 1465 1462 1454 1451 1451 1450 1450 1451 1451 1452 1453 1454 1455 1456 1457 1457 1458 1458 1458 1457 1457 1456 1454 1453 1452 1450 1448 1447 1445 1443 1440 1438 1435 1433 1431 1429 1427 1425 1423 1421 1419 1417
1462 1461 1461 1458 1452 1449 1447 1447 1448 1449 1450 1451 1452 1453 1454 1454 1455 1455 1456 1456 1456 1455 1454 1453 1452 1450 1449 1448 1446 1445 1443 1440 1438 1436 1434 1431 1429 1427 1424 1423 1421 1419 1417 1415
1454 1454 1456 1451 1445 1446 1444 1444 1446 1447 1448 1449 1450 1451 1452 1453 1453 1453 1453 1454 1453 1453 1452 1451 1450 1449 1447 1446 1444 1442 1440 1438 1436 1433 1431 1429 1427 1424 1422 1419 1417 1416 1414 1412